Find Starlink 6090

NORAD ID: 56095 Int'l Des: 2023-046 Owner: SPXS Country: US Constellation: starlink operational
LEOCIRCULAR

Current View

Loading 3D Globe...

About Starlink 6090

Starlink 6090 (NORAD 56095) is a starlink constellation satellite (v1.5) launched Mar 29, 2023 by SPXS of US. It operates in LEO, CIRCULAR orbit with a mass of 305.00 kg.

About Starlink 6090

Description loading...

Upcoming Passes

Passes for default location (London). Set your location on the main map for personalized predictions.

Altitude History

Loading altitude history...

Two-Line Element Set

1 56095U 23046C 26167.15368014 -.00000021 00000-0 87793-5 0 9993
2 56095 43.0058 325.2067 0001202 273.4737 86.5977 15.27576403177096
Epoch: Jun 16, 2026 • Age: 13 hours

Current Status

Altitude 482.6 km
Velocity 7.63 km/s
Sub-Earth Point 18.88°N, 166.82°W
Launch Date Mar 29, 2023
Age 3.2 years
Type internet

Technical Details

Classification Payload
Mass 305.00 kg
Dry Mass 290.00 kg
Total Mass 305.00 kg
Length 0.20 m
Diameter 2.80 m
Span 9.00 m
Shape Box + pan
Manufacturer SPXS
Bus Type Starlink
Phase Status In Orbit
Owner/State SPXS/US

Most Searched